This is the latest recevied weather packets stored in our database for station/object KE8DDT-7. If no packets are shown the sender has not sent any weather packets the latest 10 day(s).
| Time | Temp. | Humidity | Pressure | Rain* | Wind** | Luminosity | Snow |
|---|---|---|---|---|---|---|---|
| 1777746078 | 7.78° C | 43% | 1009.2 hPa | 0 mm | - | 320 W/m² | - |
| 1777745778 | 8.33° C | 42% | 1009.2 hPa | 0 mm | - | 279 W/m² | - |
| 1777745478 | 8.33° C | 43% | 1009.2 hPa | 0 mm | - | 278 W/m² | - |
| 1777745178 | 8.33° C | 44% | 1009.2 hPa | 0 mm | - | 420 W/m² | - |
| 1777744878 | 7.78° C | 43% | 1009.3 hPa | 0 mm | - | 504 W/m² | - |
| 1777744578 | 8.33° C | 42% | 1009.5 hPa | 0 mm | - | 387 W/m² | - |
| 1777743978 | 8.33° C | 41% | 1009.3 hPa | 0 mm | - | 441 W/m² | - |
| 1777743678 | 8.33° C | 43% | 1009.4 hPa | 0 mm | - | 483 W/m² | - |
| 1777743378 | 8.33° C | 43% | 1009.4 hPa | 0 mm | - | 390 W/m² | - |
| 1777743078 | 8.33° C | 43% | 1009.5 hPa | 0 mm | - | 338 W/m² | - |
| 1777742778 | 8.33° C | 43% | 1009.5 hPa | 0 mm | - | 301 W/m² | - |
| 1777742478 | 8.33° C | 43% | 1009.5 hPa | 0 mm | - | 301 W/m² | - |
| 1777742179 | 8.33° C | 45% | 1009.5 hPa | 0 mm | - | 624 W/m² | - |
| 1777741880 | 7.78° C | 45% | 1009.5 hPa | 0 mm | - | 689 W/m² | - |
| 1777741578 | 7.78° C | 46% | 1009.7 hPa | 0 mm | - | 657 W/m² | - |
| 1777741278 | 7.78° C | 45% | 1009.6 hPa | 0 mm | - | 353 W/m² | - |
| 1777740978 | 7.22° C | 44% | 1009.6 hPa | 0 mm | - | 311 W/m² | - |
| 1777740678 | 7.22° C | 45% | 1009.7 hPa | 0 mm | - | 1169 W/m² | - |
| 1777740378 | 7.22° C | 47% | 1009.8 hPa | 0 mm | - | 410 W/m² | - |
| 1777740079 | 6.67° C | 49% | 1009.8 hPa | 0 mm | - | 403 W/m² | - |
| 1777739778 | 6.67° C | 47% | 1009.9 hPa | 0 mm | - | 401 W/m² | - |
| 1777739478 | 6.67° C | 48% | 1009.8 hPa | 0 mm | - | 279 W/m² | - |
| 1777739178 | 6.67° C | 49% | 1009.9 hPa | 0 mm | - | 352 W/m² | - |
| 1777738878 | 6.67° C | 47% | 1009.8 hPa | 0 mm | - | 306 W/m² | - |
| 1777738578 | 6.67° C | 49% | 1009.8 hPa | 0 mm | - | 1165 W/m² | - |
* Rain latest hour (hover to see other rain measurements)
** Current wind speed in m/s (hover to see current wind gust speed)